When you browse on this site, cookies collect data to enhance your experience and personalize the content and advertising you see.
Visit our Privacy Policy to learn more. By continuing to use the site, you agree to this use of cookies and data.
  • In Spain
  • List of Countries
  • For 7 days
  • Water Temperature
  • Weather Map
  • Weather Widgets
  • user-avatar
    Login

    Hourly Weather Ibb

    Today, 20 September, Friday

    Time Temperature Precipitation Wind Pressure Humidity
    00:00 +19°C° 0.1 mm 0 mps 595 mmHg 71%
    01:00 +21°C° 0 mm 1 mps 594 mmHg 67%
    02:00 +20°C° 0 mm 1 mps 594 mmHg 63%
    03:00 +20°C° 0 mm 1 mps 593 mmHg 58%
    04:00 +20°C° 0 mm 1 mps 594 mmHg 56%
    05:00 +20°C° 0 mm 1 mps 594 mmHg 54%
    06:00 +20°C° 0 mm 1 mps 594 mmHg 52%
    07:00 +22°C° 0 mm 1 mps 595 mmHg 46%
    08:00 +23°C° 0 mm 1 mps 596 mmHg 41%
    09:00 +25°C° 0 mm 1 mps 597 mmHg 35%
    10:00 +25°C° 0 mm 2 mps 597 mmHg 36%
    11:00 +26°C° 0 mm 2 mps 597 mmHg 37%
    12:00 +26°C° 0 mm 3 mps 597 mmHg 38%
    13:00 +25°C° 0.6 mm 3 mps 596 mmHg 45%
    14:00 +24°C° 0.6 mm 2 mps 595 mmHg 51%
    15:00 +23°C° 0.6 mm 2 mps 594 mmHg 57%
    16:00 +23°C° 0.8 mm 2 mps 594 mmHg 61%
    17:00 +21°C° 0.8 mm 2 mps 594 mmHg 66%
    18:00 +20°C° 0.8 mm 3 mps 594 mmHg 70%
    19:00 +20°C° 0.1 mm 2 mps 594 mmHg 72%
    20:00 +21°C° 0.1 mm 1 mps 594 mmHg 73%
    21:00 +19°C° 0.1 mm 0 mps 594 mmHg 75%
    22:00 +21°C° 0 mm 1 mps 594 mmHg 72%
    23:00 +21°C° 0 mm 1 mps 594 mmHg 70%

    Tomorrow, 21 September, Saturday

    Time Temperature Precipitation Wind Pressure Humidity
    00:00 +21°C° 0 mm 1 mps 594 mmHg 67%
    01:00 +20°C° 0 mm 1 mps 593 mmHg 63%
    02:00 +20°C° 0 mm 1 mps 593 mmHg 58%
    03:00 +19°C° 0 mm 2 mps 593 mmHg 53%
    04:00 +19°C° 0 mm 2 mps 593 mmHg 51%
    05:00 +18°C° 0 mm 2 mps 593 mmHg 50%
    06:00 +18°C° 0 mm 2 mps 593 mmHg 48%
    07:00 +20°C° 0 mm 2 mps 595 mmHg 41%
    08:00 +23°C° 0 mm 2 mps 596 mmHg 34%
    09:00 +25°C° 0 mm 3 mps 597 mmHg 28%
    10:00 +26°C° 0 mm 3 mps 597 mmHg 26%
    11:00 +27°C° 0 mm 3 mps 597 mmHg 24%
    12:00 +28°C° 0 mm 3 mps 597 mmHg 21%
    13:00 +28°C° 0 mm 4 mps 596 mmHg 25%
    14:00 +28°C° 0 mm 4 mps 596 mmHg 28%
    15:00 +27°C° 0 mm 4 mps 595 mmHg 31%
    16:00 +26°C° 0.6 mm 3 mps 594 mmHg 42%
    17:00 +24°C° 0.6 mm 2 mps 594 mmHg 52%
    18:00 +22°C° 0.6 mm 1 mps 593 mmHg 63%
    19:00 +22°C° 0.2 mm 1 mps 593 mmHg 66%
    20:00 +21°C° 0.2 mm 1 mps 593 mmHg 69%
    21:00 +21°C° 0.2 mm 1 mps 594 mmHg 72%
    22:00 +21°C° 0 mm 1 mps 594 mmHg 71%
    23:00 +21°C° 0 mm 1 mps 594 mmHg 70%

    Day after tomorrow, 22 September, Sunday

    Time Temperature Precipitation Wind Pressure Humidity
    00:00 +20°C° 0 mm 1 mps 594 mmHg 69%
    01:00 +20°C° 0 mm 1 mps 593 mmHg 64%
    02:00 +20°C° 0 mm 1 mps 593 mmHg 59%
    03:00 +20°C° 0 mm 1 mps 593 mmHg 54%
    04:00 +19°C° 0 mm 1 mps 593 mmHg 51%
    05:00 +19°C° 0 mm 1 mps 593 mmHg 49%
    06:00 +19°C° 0 mm 1 mps 593 mmHg 46%
    07:00 +20°C° 0 mm 2 mps 595 mmHg 39%
    08:00 +23°C° 0 mm 2 mps 596 mmHg 32%
    09:00 +25°C° 0 mm 3 mps 597 mmHg 24%
    10:00 +26°C° 0 mm 2 mps 597 mmHg 23%
    11:00 +26°C° 0 mm 2 mps 597 mmHg 22%
    12:00 +27°C° 0 mm 2 mps 597 mmHg 21%
    13:00 +27°C° 0 mm 2 mps 596 mmHg 25%
    14:00 +27°C° 0 mm 3 mps 596 mmHg 29%
    15:00 +27°C° 0 mm 4 mps 595 mmHg 33%
    16:00 +25°C° 0.7 mm 3 mps 594 mmHg 44%
    17:00 +22°C° 0.7 mm 3 mps 594 mmHg 56%
    18:00 +20°C° 0.7 mm 2 mps 593 mmHg 67%
    19:00 +20°C° 0.6 mm 2 mps 594 mmHg 68%
    20:00 +21°C° 0.6 mm 1 mps 594 mmHg 69%
    21:00 +19°C° 0.6 mm 0 mps 594 mmHg 70%
    22:00 +19°C° 0 mm 0 mps 594 mmHg 70%
    23:00 +19°C° 0 mm 0 mps 594 mmHg 70%

    23 September, Monday

    Time Temperature Precipitation Wind Pressure Humidity
    00:00 +18°C° 0 mm 0 mps 594 mmHg 70%
    01:00 +20°C° 0 mm 1 mps 594 mmHg 68%
    02:00 +20°C° 0 mm 1 mps 593 mmHg 66%
    03:00 +20°C° 0 mm 1 mps 593 mmHg 64%
    04:00 +19°C° 0 mm 1 mps 593 mmHg 63%
    05:00 +19°C° 0 mm 1 mps 593 mmHg 61%
    06:00 +19°C° 0 mm 1 mps 594 mmHg 59%
    07:00 +21°C° 0 mm 1 mps 595 mmHg 51%
    08:00 +23°C° 0 mm 1 mps 596 mmHg 42%
    09:00 +25°C° 0 mm 1 mps 597 mmHg 34%
    10:00 +25°C° 0 mm 1 mps 597 mmHg 34%
    11:00 +25°C° 0 mm 2 mps 597 mmHg 35%
    12:00 +26°C° 0 mm 3 mps 596 mmHg 35%
    13:00 +25°C° 0.2 mm 3 mps 596 mmHg 40%
    14:00 +25°C° 0.2 mm 3 mps 595 mmHg 46%
    15:00 +24°C° 0.2 mm 3 mps 594 mmHg 51%
    16:00 +22°C° 1.1 mm 3 mps 594 mmHg 57%
    17:00 +21°C° 1.1 mm 2 mps 594 mmHg 62%
    18:00 +20°C° 1.1 mm 2 mps 593 mmHg 68%
    19:00 +20°C° 0.2 mm 2 mps 594 mmHg 68%
    20:00 +21°C° 0.2 mm 1 mps 594 mmHg 69%
    21:00 +21°C° 0.2 mm 1 mps 594 mmHg 69%
    22:00 +21°C° 0 mm 1 mps 594 mmHg 68%
    23:00 +21°C° 0 mm 1 mps 594 mmHg 68%

    24 September, Tuesday

    Time Temperature Precipitation Wind Pressure Humidity
    00:00 +20°C° 0 mm 1 mps 594 mmHg 67%
    01:00 +20°C° 0 mm 1 mps 593 mmHg 66%
    02:00 +20°C° 0 mm 1 mps 593 mmHg 65%
    03:00 +20°C° 0 mm 1 mps 593 mmHg 64%
    04:00 +19°C° 0 mm 1 mps 593 mmHg 62%
    05:00 +19°C° 0 mm 1 mps 593 mmHg 61%
    06:00 +19°C° 0 mm 1 mps 594 mmHg 60%
    07:00 +21°C° 0 mm 1 mps 595 mmHg 52%
    08:00 +23°C° 0 mm 1 mps 596 mmHg 45%
    09:00 +24°C° 0 mm 1 mps 597 mmHg 38%
    10:00 +25°C° 0 mm 2 mps 597 mmHg 36%
    11:00 +26°C° 0 mm 3 mps 597 mmHg 35%
    12:00 +27°C° 0 mm 4 mps 597 mmHg 33%
    13:00 +26°C° 0.7 mm 4 mps 596 mmHg 40%
    14:00 +25°C° 0.7 mm 3 mps 595 mmHg 47%
    15:00 +24°C° 0.7 mm 3 mps 594 mmHg 54%
    16:00 +23°C° 1 mm 2 mps 594 mmHg 59%
    17:00 +21°C° 1 mm 2 mps 593 mmHg 63%
    18:00 +22°C° 1 mm 1 mps 593 mmHg 68%
    19:00 +22°C° 0.4 mm 1 mps 593 mmHg 68%
    20:00 +21°C° 0.4 mm 1 mps 594 mmHg 68%
    21:00 +19°C° 0.4 mm 0 mps 594 mmHg 68%
    22:00 +19°C° 0 mm 0 mps 594 mmHg 67%
    23:00 +21°C° 0 mm 1 mps 594 mmHg 66%

    25 September, Wednesday

    Time Temperature Precipitation Wind Pressure Humidity
    00:00 +22°C° 0 mm 1 mps 594 mmHg 64%
    01:00 +21°C° 0 mm 1 mps 594 mmHg 62%
    02:00 +21°C° 0 mm 1 mps 593 mmHg 61%
    03:00 +20°C° 0 mm 1 mps 593 mmHg 59%
    04:00 +20°C° 0 mm 1 mps 593 mmHg 58%
    05:00 +19°C° 0 mm 1 mps 593 mmHg 57%
    06:00 +19°C° 0 mm 1 mps 594 mmHg 56%
    07:00 +21°C° 0 mm 1 mps 595 mmHg 48%
    08:00 +23°C° 0 mm 1 mps 596 mmHg 41%
    09:00 +25°C° 0 mm 2 mps 597 mmHg 33%
    10:00 +25°C° 0 mm 2 mps 597 mmHg 32%
    11:00 +26°C° 0 mm 2 mps 597 mmHg 32%
    12:00 +27°C° 0 mm 3 mps 597 mmHg 31%
    13:00 +26°C° 0.3 mm 3 mps 596 mmHg 38%
    14:00 +25°C° 0.3 mm 3 mps 595 mmHg 44%
    15:00 +25°C° 0.3 mm 3 mps 594 mmHg 50%
    16:00 +24°C° 1 mm 2 mps 594 mmHg 56%
    17:00 +23°C° 1 mm 2 mps 594 mmHg 62%
    18:00 +21°C° 1 mm 2 mps 594 mmHg 68%
    19:00 +20°C° 0.6 mm 2 mps 594 mmHg 70%
    20:00 +21°C° 0.6 mm 1 mps 594 mmHg 72%
    21:00 +21°C° 0.6 mm 1 mps 595 mmHg 74%
    22:00 +21°C° 0.1 mm 1 mps 595 mmHg 72%
    23:00 +21°C° 0.1 mm 1 mps 595 mmHg 69%
    Show more